CUBERRT (43546 NORAD) Tracking and Keplerian Element Data

This shows tracking and keplerian element data for the satellite.

Feedback or suggestion? Click here.




ElementValue
Catalog43546
NameCUBERRT
Epoch Orbit4421
Epoch Day113.58531749
Epoch Year2019
RAAN263.1019
Inclination51.6383
Eccentricity0.0005354
Argument of Perigee280.8122
Mean Anonmoly79.227
Mean Motion15.62475553
Decay Rate6.223E-05
L11 43546U 98067NU 19113.58531749 .00006223 00000-0 74444-4 0 9999
L22 43546 51.6383 263.1019 0005354 280.8122 79.2270 15.62475553 44213

Live tracking and technical data element details for CUBERRT (NORAD 43546). CUBERRT can be tracked NOW for your location showing map with azimuth and elevation plus other details from your city location.

Track the satellite on the map from your city or location and see movement details for azimuth, elevation, latitude, longitude, range, height, and movement on the map or in text.







IsCatalogInMostPopularTable: catalog: 43546, numindb: 128
Update: records affected: 1



GetName: 43546 CUBERRT

Hit Count: updated at: Thu, 25 Apr 2019 19:42:28 GMT